Time,TemperatureF,DewpointF,PressureIn,WindDirection,WindDirectionDegrees,WindSpeedMPH,WindSpeedGustMPH,Humidity,HourlyPrecipIn,Conditions,Clouds,dailyrainin,SoftwareType,DateUTC
2013-03-12 00:01:00,44.0,41.0,30.06,ESE,104,0.0,0.0,88,0.00,,,0.00,,2013-03-12 07:01:00,
2013-03-12 00:12:00,44.0,41.0,30.06,ESE,104,0.0,0.0,88,0.00,,,0.00,,2013-03-12 07:12:00,
2013-03-12 00:21:00,44.0,40.0,30.07,ESE,104,0.0,0.0,87,0.00,,,0.00,,2013-03-12 07:21:00,
2013-03-12 00:32:00,43.0,40.0,30.07,ESE,104,0.0,0.0,88,0.00,,,0.00,,2013-03-12 07:32:00,
2013-03-12 00:41:00,43.0,40.0,30.07,ESE,104,0.0,0.0,88,0.00,,,0.00,,2013-03-12 07:41:00,
2013-03-12 00:52:00,43.0,40.0,30.06,ESE,104,0.0,0.0,88,0.00,,,0.00,,2013-03-12 07:52:00,
2013-03-12 01:01:00,43.0,40.0,30.07,ESE,104,0.0,0.0,88,0.00,,,0.00,,2013-03-12 08:01:00,
2013-03-12 01:12:00,43.0,40.0,30.07,ESE,104,0.0,0.0,88,0.00,,,0.00,,2013-03-12 08:12:00,
2013-03-12 01:21:00,43.0,40.0,30.07,ESE,104,0.0,0.0,88,0.00,,,0.00,,2013-03-12 08:21:00,
2013-03-12 01:32:00,42.0,39.0,30.06,ESE,104,0.0,0.0,88,0.00,,,0.00,,2013-03-12 08:32:00,
2013-03-12 01:41:00,42.0,39.0,30.06,ESE,104,0.0,0.0,88,0.00,,,0.00,,2013-03-12 08:41:00,
2013-03-12 01:51:00,42.0,39.0,30.07,ESE,104,0.0,0.0,88,0.00,,,0.00,,2013-03-12 08:51:00,
2013-03-12 02:02:00,41.0,38.0,30.06,ESE,104,0.0,0.0,88,0.00,,,0.00,,2013-03-12 09:02:00,
2013-03-12 02:11:00,41.0,38.0,30.06,ESE,104,0.0,0.0,88,0.00,,,0.00,,2013-03-12 09:11:00,
2013-03-12 02:22:00,41.0,38.0,30.06,ESE,104,0.0,0.0,89,0.00,,,0.00,,2013-03-12 09:22:00,
2013-03-12 02:32:00,41.0,38.0,30.07,ESE,104,0.0,0.0,88,0.00,,,0.00,,2013-03-12 09:32:00,
2013-03-12 02:42:00,41.0,38.0,30.07,ESE,104,0.0,0.0,88,0.00,,,0.00,,2013-03-12 09:42:00,
2013-03-12 02:51:00,41.0,38.0,30.07,ESE,104,0.0,0.0,88,0.00,,,0.00,,2013-03-12 09:51:00,
2013-03-12 03:01:00,40.0,37.0,30.06,ESE,104,0.0,0.0,89,0.00,,,0.00,,2013-03-12 10:01:00,
2013-03-12 03:11:00,40.0,37.0,30.06,ESE,104,0.0,0.0,89,0.00,,,0.00,,2013-03-12 10:11:00,
2013-03-12 03:22:00,40.0,37.0,30.06,ESE,104,0.0,0.0,89,0.00,,,0.00,,2013-03-12 10:22:00,
2013-03-12 03:32:00,40.0,37.0,30.06,ESE,104,0.0,0.0,90,0.00,,,0.00,,2013-03-12 10:32:00,
2013-03-12 03:41:00,40.0,37.0,30.06,ESE,104,0.0,0.0,90,0.00,,,0.00,,2013-03-12 10:41:00,
2013-03-12 03:52:00,40.0,37.0,30.05,ESE,104,0.0,0.0,90,0.00,,,0.00,,2013-03-12 10:52:00,
2013-03-12 04:01:00,40.0,37.0,30.05,ESE,104,0.0,0.0,90,0.00,,,0.00,,2013-03-12 11:01:00,
2013-03-12 04:11:00,40.0,37.0,30.05,ESE,104,0.0,0.0,90,0.00,,,0.00,,2013-03-12 11:11:00,
2013-03-12 04:22:00,39.0,36.0,30.04,ESE,104,0.0,0.0,89,0.00,,,0.00,,2013-03-12 11:22:00,
2013-03-12 04:31:00,39.0,36.0,30.04,ESE,104,0.0,0.0,89,0.00,,,0.00,,2013-03-12 11:31:00,
2013-03-12 04:42:00,39.0,36.0,30.04,ESE,104,0.0,0.0,89,0.00,,,0.00,,2013-03-12 11:42:00,
2013-03-12 04:52:00,39.0,36.0,30.05,ESE,104,0.0,0.0,90,0.00,,,0.00,,2013-03-12 11:52:00,
2013-03-12 05:01:00,40.0,37.0,30.05,ESE,104,0.0,0.0,90,0.00,,,0.00,,2013-03-12 12:01:00,
2013-03-12 05:12:00,40.0,37.0,30.05,ESE,104,0.0,0.0,90,0.00,,,0.00,,2013-03-12 12:12:00,
2013-03-12 05:22:00,40.0,37.0,30.05,ESE,104,0.0,0.0,90,0.00,,,0.00,,2013-03-12 12:22:00,
2013-03-12 05:31:00,40.0,37.0,30.05,ESE,104,0.0,0.0,89,0.00,,,0.00,,2013-03-12 12:31:00,
2013-03-12 05:41:00,40.0,37.0,30.05,ESE,104,0.0,0.0,89,0.00,,,0.00,,2013-03-12 12:41:00,
2013-03-12 05:51:00,40.0,37.0,30.05,ESE,104,0.0,0.0,89,0.00,,,0.00,,2013-03-12 12:51:00,
2013-03-12 06:02:00,40.0,37.0,30.06,ESE,104,0.0,0.0,90,0.00,,,0.00,,2013-03-12 13:02:00,
2013-03-12 06:11:00,40.0,37.0,30.06,ESE,104,0.0,0.0,90,0.00,,,0.00,,2013-03-12 13:11:00,
2013-03-12 06:21:00,40.0,37.0,30.05,ESE,104,0.0,0.0,90,0.00,,,0.00,,2013-03-12 13:21:00,
2013-03-12 06:32:00,40.0,37.0,30.05,ESE,104,0.0,0.0,90,0.00,,,0.00,,2013-03-12 13:32:00,
2013-03-12 06:42:00,40.0,37.0,30.05,ESE,104,0.0,0.0,90,0.00,,,0.00,,2013-03-12 13:42:00,
2013-03-12 06:52:00,40.0,37.0,30.06,ESE,104,0.0,0.0,89,0.00,,,0.00,,2013-03-12 13:52:00,
2013-03-12 07:01:00,40.0,37.0,30.07,ESE,104,0.0,0.0,90,0.00,,,0.00,,2013-03-12 14:01:00,
2013-03-12 07:11:00,40.0,37.0,30.07,ESE,104,0.0,0.0,90,0.00,,,0.00,,2013-03-12 14:11:00,
2013-03-12 07:21:00,40.0,38.0,30.06,ESE,104,0.0,0.0,91,0.00,,,0.00,,2013-03-12 14:21:00,
2013-03-12 07:32:00,41.0,38.0,30.08,ESE,104,0.0,0.0,90,0.00,,,0.00,,2013-03-12 14:32:00,
2013-03-12 07:42:00,41.0,38.0,30.08,ESE,104,0.0,0.0,90,0.00,,,0.00,,2013-03-12 14:42:00,
2013-03-12 07:52:00,41.0,38.0,30.07,ESE,104,0.0,0.0,90,0.00,,,0.00,,2013-03-12 14:52:00,
2013-03-12 08:01:00,41.0,39.0,30.08,ESE,104,0.0,0.0,91,0.00,,,0.00,,2013-03-12 15:01:00,
2013-03-12 08:11:00,41.0,39.0,30.08,ESE,104,0.0,0.0,91,0.00,,,0.00,,2013-03-12 15:11:00,
2013-03-12 08:22:00,41.0,39.0,30.07,ESE,104,0.0,0.0,91,0.00,,,0.00,,2013-03-12 15:22:00,
2013-03-12 08:31:00,42.0,40.0,30.08,ESE,104,0.0,0.0,92,0.00,,,0.00,,2013-03-12 15:31:00,
2013-03-12 08:52:00,42.0,40.0,30.09,ESE,104,0.0,0.0,92,0.00,,,0.00,,2013-03-12 15:52:00,
2013-03-12 09:01:00,42.0,40.0,30.09,ESE,104,0.0,0.0,92,0.00,,,0.00,,2013-03-12 16:01:00,
2013-03-12 09:11:00,42.0,40.0,30.09,ESE,104,0.0,0.0,92,0.00,,,0.00,,2013-03-12 16:11:00,
2013-03-12 09:21:00,43.0,41.0,30.09,ESE,104,0.0,0.0,92,0.00,,,0.00,,2013-03-12 16:21:00,
2013-03-12 09:32:00,43.0,41.0,30.10,ESE,104,0.0,0.0,92,0.00,,,0.00,,2013-03-12 16:32:00,
2013-03-12 09:43:00,43.0,41.0,30.10,ESE,104,0.0,0.0,92,0.00,,,0.00,,2013-03-12 16:43:00,
2013-03-12 09:52:00,43.0,41.0,30.10,ESE,104,0.0,0.0,92,0.00,,,0.00,,2013-03-12 16:52:00,
2013-03-12 10:02:00,46.0,44.0,30.10,ESE,104,0.0,0.0,94,0.00,,,0.00,,2013-03-12 17:02:00,
2013-03-12 10:12:00,46.0,44.0,30.10,ESE,104,0.0,0.0,94,0.00,,,0.00,,2013-03-12 17:12:00,
2013-03-12 10:22:00,48.0,46.0,30.10,ESE,104,0.0,0.0,94,0.00,,,0.00,,2013-03-12 17:22:00,
2013-03-12 10:33:00,50.0,48.0,30.09,ESE,103,0.0,1.0,94,0.00,,,0.00,,2013-03-12 17:33:00,
2013-03-12 10:42:00,50.0,48.0,30.09,ESE,103,0.0,1.0,94,0.00,,,0.00,,2013-03-12 17:42:00,
2013-03-12 10:53:00,50.0,48.0,30.09,ESE,103,0.0,1.0,94,0.00,,,0.00,,2013-03-12 17:53:00,
2013-03-12 11:02:00,53.0,50.0,30.09,ESE,104,0.0,2.0,90,0.00,,,0.00,,2013-03-12 18:02:00,
2013-03-12 11:12:00,53.0,50.0,30.09,ESE,104,0.0,2.0,90,0.00,,,0.00,,2013-03-12 18:12:00,
2013-03-12 11:21:00,53.0,50.0,30.09,ESE,104,0.0,2.0,90,0.00,,,0.00,,2013-03-12 18:21:00,
2013-03-12 11:32:00,57.0,50.0,30.08,ESE,103,0.0,0.0,78,0.00,,,0.00,,2013-03-12 18:32:00,
2013-03-12 11:42:00,57.0,50.0,30.08,ESE,103,0.0,0.0,78,0.00,,,0.00,,2013-03-12 18:42:00,
2013-03-12 11:53:00,57.0,50.0,30.08,ESE,103,0.0,0.0,78,0.00,,,0.00,,2013-03-12 18:53:00,
2013-03-12 12:03:00,62.0,51.0,30.08,ENE,61,0.0,3.0,67,0.00,,,0.00,,2013-03-12 19:03:00,
2013-03-12 12:12:00,62.0,51.0,30.08,ENE,61,0.0,3.0,67,0.00,,,0.00,,2013-03-12 19:12:00,
2013-03-12 12:22:00,64.0,52.0,30.08,ESE,118,0.0,2.0,64,0.00,,,0.00,,2013-03-12 19:22:00,
2013-03-12 12:32:00,66.0,51.0,30.07,ESE,117,0.0,2.0,59,0.00,,,0.00,,2013-03-12 19:32:00,
2013-03-12 12:43:00,66.0,51.0,30.07,ESE,117,0.0,2.0,59,0.00,,,0.00,,2013-03-12 19:43:00,
2013-03-12 12:53:00,67.0,51.0,30.07,ESE,117,0.0,3.0,57,0.00,,,0.00,,2013-03-12 19:53:00,
2013-03-12 13:01:00,67.0,50.0,30.06,SE,135,0.0,3.0,55,0.00,,,0.00,,2013-03-12 20:01:00,
2013-03-12 13:11:00,67.0,50.0,30.06,SE,135,0.0,3.0,55,0.00,,,0.00,,2013-03-12 20:11:00,
2013-03-12 13:22:00,67.0,50.0,30.06,SE,135,0.0,3.0,55,0.00,,,0.00,,2013-03-12 20:22:00,
2013-03-12 13:32:00,70.0,51.0,30.06,SSE,151,1.0,4.0,51,0.00,,,0.00,,2013-03-12 20:32:00,
2013-03-12 13:41:00,70.0,51.0,30.06,SSE,151,1.0,4.0,51,0.00,,,0.00,,2013-03-12 20:41:00,
2013-03-12 13:53:00,71.0,52.0,30.06,SSE,150,1.0,4.0,52,0.00,,,0.00,,2013-03-12 20:53:00,
2013-03-12 14:02:00,73.0,55.0,30.04,SE,144,1.0,4.0,54,0.00,,,0.00,,2013-03-12 21:02:00,
2013-03-12 14:11:00,73.0,55.0,30.04,SE,144,1.0,4.0,54,0.00,,,0.00,,2013-03-12 21:11:00,
2013-03-12 14:21:00,73.0,55.0,30.03,SSW,199,0.0,4.0,53,0.00,,,0.00,,2013-03-12 21:21:00,
2013-03-12 14:32:00,73.0,55.0,30.03,SSW,199,0.0,4.0,53,0.00,,,0.00,,2013-03-12 21:32:00,
2013-03-12 14:42:00,73.0,55.0,30.03,SSW,199,0.0,4.0,53,0.00,,,0.00,,2013-03-12 21:42:00,
2013-03-12 14:52:00,73.0,52.0,30.02,SSE,148,1.0,5.0,48,0.00,,,0.00,,2013-03-12 21:52:00,
2013-03-12 15:01:00,73.0,52.0,30.01,South,175,1.0,6.0,48,0.00,,,0.00,,2013-03-12 22:01:00,
2013-03-12 15:12:00,73.0,52.0,30.01,South,175,1.0,6.0,48,0.00,,,0.00,,2013-03-12 22:12:00,
2013-03-12 15:21:00,73.0,52.0,30.01,South,184,1.0,5.0,47,0.00,,,0.00,,2013-03-12 22:21:00,
2013-03-12 15:32:00,74.0,51.0,30.01,South,180,1.0,5.0,44,0.00,,,0.00,,2013-03-12 22:32:00,
2013-03-12 15:42:00,74.0,51.0,30.01,South,180,1.0,5.0,44,0.00,,,0.00,,2013-03-12 22:42:00,
2013-03-12 15:53:00,74.0,51.0,30.01,South,173,1.0,4.0,44,0.00,,,0.00,,2013-03-12 22:53:00,
2013-03-12 16:02:00,74.0,51.0,30.01,South,173,1.0,4.0,44,0.00,,,0.00,,2013-03-12 23:02:00,
2013-03-12 16:11:00,74.0,51.0,30.01,South,173,1.0,4.0,44,0.00,,,0.00,,2013-03-12 23:11:00,
2013-03-12 16:22:00,74.0,51.0,30.01,South,173,1.0,4.0,44,0.00,,,0.00,,2013-03-12 23:22:00,
2013-03-12 16:33:00,75.0,52.0,30.02,South,169,1.0,3.0,44,0.00,,,0.00,,2013-03-12 23:33:00,
2013-03-12 16:43:00,75.0,52.0,30.02,South,169,1.0,3.0,44,0.00,,,0.00,,2013-03-12 23:43:00,
2013-03-12 16:52:00,75.0,52.0,30.02,South,169,1.0,3.0,44,0.00,,,0.00,,2013-03-12 23:52:00,
2013-03-12 17:02:00,75.0,48.0,30.01,SW,218,1.0,5.0,38,0.00,,,0.00,,2013-03-13 00:02:00,
2013-03-12 17:11:00,75.0,48.0,30.01,SW,218,1.0,5.0,38,0.00,,,0.00,,2013-03-13 00:11:00,
2013-03-12 17:22:00,76.0,48.0,30.02,SW,216,0.0,5.0,37,0.00,,,0.00,,2013-03-13 00:22:00,
2013-03-12 17:32:00,76.0,48.0,30.02,SW,216,0.0,5.0,37,0.00,,,0.00,,2013-03-13 00:32:00,
2013-03-12 17:41:00,76.0,48.0,30.02,SW,216,0.0,5.0,37,0.00,,,0.00,,2013-03-13 00:41:00,
2013-03-12 17:53:00,76.0,46.0,30.01,West,263,0.0,3.0,34,0.00,,,0.00,,2013-03-13 00:53:00,
2013-03-12 18:02:00,75.0,44.0,30.01,South,170,0.0,1.0,33,0.00,,,0.00,,2013-03-13 01:02:00,
2013-03-12 18:12:00,75.0,44.0,30.01,South,170,0.0,1.0,33,0.00,,,0.00,,2013-03-13 01:12:00,
2013-03-12 18:21:00,75.0,44.0,30.00,South,189,0.0,3.0,33,0.00,,,0.00,,2013-03-13 01:21:00,
2013-03-12 18:31:00,73.0,44.0,30.01,SSW,211,0.0,3.0,36,0.00,,,0.00,,2013-03-13 01:31:00,
2013-03-12 18:42:00,73.0,44.0,30.01,SSW,211,0.0,3.0,36,0.00,,,0.00,,2013-03-13 01:42:00,
2013-03-12 18:52:00,73.0,44.0,30.01,SSW,211,0.0,3.0,36,0.00,,,0.00,,2013-03-13 01:52:00,
2013-03-12 19:01:00,68.0,49.0,30.01,South,171,0.0,2.0,51,0.00,,,0.00,,2013-03-13 02:01:00,
2013-03-12 19:11:00,68.0,49.0,30.01,South,171,0.0,2.0,51,0.00,,,0.00,,2013-03-13 02:11:00,
2013-03-12 19:21:00,68.0,49.0,30.01,South,171,0.0,2.0,51,0.00,,,0.00,,2013-03-13 02:21:00,
2013-03-12 19:32:00,68.0,49.0,30.01,South,171,0.0,2.0,51,0.00,,,0.00,,2013-03-13 02:32:00,
2013-03-12 19:42:00,68.0,49.0,30.01,South,171,0.0,2.0,51,0.00,,,0.00,,2013-03-13 02:42:00,
2013-03-12 19:51:00,59.0,47.0,30.02,SSE,147,1.0,5.0,64,0.00,,,0.00,,2013-03-13 02:51:00,
2013-03-12 20:02:00,56.0,46.0,30.04,SE,145,0.0,3.0,69,0.00,,,0.00,,2013-03-13 03:02:00,
2013-03-12 20:10:00,55.0,46.0,30.04,SSE,152,0.0,0.0,71,0.00,,,0.00,,2013-03-13 03:10:00,
2013-03-12 20:12:00,56.0,46.0,30.04,SE,145,0.0,3.0,69,0.00,,,0.00,,2013-03-13 03:12:00,
2013-03-12 20:21:00,55.0,46.0,30.04,SSE,152,0.0,2.0,71,0.00,,,0.00,,2013-03-13 03:21:00,
2013-03-12 20:31:00,55.0,46.0,30.04,SSE,152,0.0,0.0,71,0.00,,,0.00,,2013-03-13 03:31:00,
2013-03-12 20:41:00,55.0,46.0,30.04,SSE,152,0.0,0.0,71,0.00,,,0.00,,2013-03-13 03:41:00,
2013-03-12 20:51:00,55.0,46.0,30.04,SSE,152,0.0,0.0,71,0.00,,,0.00,,2013-03-13 03:51:00,
2013-03-12 21:02:00,55.0,46.0,30.04,SSE,152,0.0,0.0,71,0.00,,,0.00,,2013-03-13 04:02:00,
2013-03-12 21:23:00,51.0,44.0,30.06,SSE,152,0.0,0.0,78,0.00,,,0.00,,2013-03-13 04:23:00,
2013-03-12 21:32:00,51.0,44.0,30.06,SSE,152,0.0,0.0,78,0.00,,,0.00,,2013-03-13 04:32:00,
2013-03-12 21:43:00,51.0,44.0,30.06,SSE,152,0.0,0.0,78,0.00,,,0.00,,2013-03-13 04:43:00,
2013-03-12 21:53:00,51.0,44.0,30.06,SSE,152,0.0,0.0,78,0.00,,,0.00,,2013-03-13 04:53:00,
2013-03-12 22:01:00,49.0,43.0,30.06,SSE,152,0.0,0.0,81,0.00,,,0.00,,2013-03-13 05:01:00,
2013-03-12 22:12:00,49.0,43.0,30.06,SSE,152,0.0,0.0,81,0.00,,,0.00,,2013-03-13 05:12:00,
2013-03-12 22:22:00,48.0,43.0,30.06,SSE,153,0.0,0.0,82,0.00,,,0.00,,2013-03-13 05:22:00,
2013-03-12 22:32:00,48.0,43.0,30.06,SSE,153,0.0,0.0,84,0.00,,,0.00,,2013-03-13 05:32:00,
2013-03-12 22:42:00,48.0,43.0,30.06,SSE,153,0.0,0.0,84,0.00,,,0.00,,2013-03-13 05:42:00,
2013-03-12 22:52:00,48.0,43.0,30.06,SSE,153,0.0,0.0,84,0.00,,,0.00,,2013-03-13 05:52:00,
2013-03-12 23:01:00,47.0,43.0,30.08,SSE,152,0.0,0.0,85,0.00,,,0.00,,2013-03-13 06:01:00,
2013-03-12 23:11:00,47.0,43.0,30.08,SSE,152,0.0,0.0,85,0.00,,,0.00,,2013-03-13 06:11:00,
2013-03-12 23:21:00,47.0,43.0,30.07,SSE,153,0.0,0.0,85,0.00,,,0.00,,2013-03-13 06:21:00,
2013-03-12 23:32:00,46.0,42.0,30.08,SSE,153,0.0,0.0,86,0.00,,,0.00,,2013-03-13 06:32:00,
2013-03-12 23:41:00,46.0,42.0,30.08,SSE,153,0.0,0.0,86,0.00,,,0.00,,2013-03-13 06:41:00,
2013-03-12 23:52:00,46.0,42.0,30.08,SSE,152,0.0,0.0,87,0.00,,,0.00,,2013-03-13 06:52:00,